Погода в Бугульме

Погода в Бугульме : погода сейчас, прогноз погоды и архив. Всё, что Вы хотите узнать о погоде в Бугульме!

Хотите узнать прогноз погоды в Бугульме? Тогда Вам сюда: Погода в Бугульме

Поиск расширенной информации на нашем сайте:

Другие новости

Новости СМИ2

Главная страница сайта

Новости сайта

03.07.2017

Напоминаем, что на нашем специализированном сайте Метеоцентр.Азия вы можете получить высокодетализированные автоматические прогнозы погоды по пунктам России, СНГ и мира в авиационном формате (включающие направление и скорость ветра, видимость, явления погоды, количество и форму облачности, нижнюю и верхнюю границу облачности).


Погода в Бугульме - сегодня

Время (UTC), дата Ветер
(°,м/с) 
Видим.   Явления Облачность Т
(°С)
Тd
(°С)
f(%) Тe
(°С)
Pmin
(гПа)
dP
(гПа)
Po
(мм)
O2
(г/м3)
Тmin Tmax R s Состояние
почвы
00 17.06.18 280 (З) 20000 м    6/4 1500 м средняя 
[Sc|Ac trans]
+8.9 +4.8 75 +8  1015.5  -0.4  734  286           
03 17.06.18 280 (З) 20000 м    3/3 1500 м 
[Sc]
+13 +6.1 63 +13  1014.5  -0.5  734  281  +8.5        сухая 
06 17.06.18 310 (СЗ) 20000 м    3/3 300 м 
[Cu hum]
+18.1 +5.2 43 +18  1012.8  -1  733  276           
12 17.06.18 330 (СЗ) 6-10{12}  20000 м    8/8 1000 м 
[Cu hum]
+19.9 +4.6 37 +20  1011  -0.6  732  274           
15 17.06.18 010 (С) 6-11{11}  20000 м    6/6 1200 м 
[Sc]
+18.3 +4.7 41 +18  1011.2  0.1  732  276    +20.9       
18 17.06.18 330 (СЗ) 2{11}  20000 м    3/0 средняя 
[Ac trans]
+13.8 +5.6 58 +14  1013  1.2  733  280           
21 17.06.18 360 (С) 10 км    3/0 средняя 
[Ac trans]
+10.2 +5.8 74 +10  1013.4  0.1  733  284           
00 18.06.18 290 (З) 20000 м    10/0 средняя, верхняя 
[Ac trans|Ci fib]
+8.7 +5.9 83 +9  1013.3  -0.2  733  285           
03 18.06.18 300 (СЗ) 20000 м    10/8 1200 м средняя 
[Sc|Ac und]
+11.5 +7.5 76 +13  1013.3  0.3  733  282  +8.3        сухая 
06 18.06.18 310 (СЗ) 20000 м    4/4 1000 м 
[Sc]
+16.4 +8.8 61 +16  1012  -0.6  732  277           
09 18.06.18 320 (СЗ) 3{10}  20000 м    8/8 1000 м 
[Cu hum]
+20.2 +10.1 52 +22  1010.8  -0.7  732  273           
12 18.06.18 320 (СЗ) 20000 м    8/8 1200 м кучево-дожд. 
[Cb calv]
+20.9 +8.9 46 +21  1010.1  -0.6  731  272           
18 18.06.18 270 (З) 20000 м    3/3 1000 м 
[Sc diur, vesp]
+13.8 +8.2 69 +14  1010  731  279           
21 18.06.18 280 (З) 10 км    6/0 верхняя 
[Ci fib]
+15.1 +7.6 61 +15  1009.6  -0.2  731  278           
00 19.06.18 280 (З) 20000 м    3/0 верхняя 
[Ci fib]
+14.2 +6.5 60 +14  1009.8  731  279           
03 19.06.18 280 (З) 20000 м    3/0 верхняя 
[Ci fib]
+17.3 +8.4 56 +18  1009.4  0.1  731  275  +13.2        сухая 
06 19.06.18 290 (З) 20000 м    3/0 верхняя 
[Ci fib]
+22.9 +7.9 38 +23  1008.9  0.1  731  270           
09 19.06.18 340 (С) 20000 м    6/6 1200 м 
[Cu med, cong]
+25.4 +4.9 27 +25  1008  -0.6  730  268           
12 19.06.18 310 (СЗ) 20000 м    6/4 1000 м верхняя 
[Cu hum|Ci fib]
+26 +5 26 +26  1007.4  -0.6  730  268           
15 19.06.18 290 (З) 20000 м    4/4 1500 м 
[Sc]
+24.2 +7.2 34 +24  1006.8  -0.7  729  269    +26.6       
18 19.06.18 260 (З) 20000 м    6/3 1500 м средняя 
[Sc|Ac trans]
+19.1 +9.4 53 +21  1007.9  0.5  730  273           
21 19.06.18 250 (З) 10 км    3/0 средняя 
[Ac trans]
+16.9 +10.1 64 +19  1007.7  -0.5  729  275           
00 20.06.18 250 (З) 20000 м    3/0 средняя 
[Ac trans]
+15.6 +9.9 69 +18  1007.1  -0.7  729  276           
03 20.06.18 240 (ЮЗ) 20000 м    3/0 средняя 
[Ac trans]
+18.9 +11.8 63 +23  1006.2  -0.5  728  272  +14.6        сухая 
06 20.06.18 230 (ЮЗ) 20000 м    4/0 верхняя 
[Ci fib]
+24.2 +12.9 49 +30  1004.2  -1.3  728  267           
Время (UTC), дата Ветер
(°,м/с) 
Видим.   Явления Облачность Т
(°С)
Тd
(°С)
f(%) Тe
(°С)
Pmin
(гПа)
dP
(гПа)
Po
(мм)
O2
(г/м3)
Тmin Tmax R s Состояние
почвы

Для получения пояснительной информации подведите курсор к названию столбца.

ПОГОДА в Бугульме - архив

Всё, что Вы хотите узнать о погоде в Бугульме - удобно и подробно!

Выберите нужную дату (начиная с 1 января 2015* года) и нажмите кнопку "Найти".
Будут отображены архивные сводки погоды по пункту Бугульма, начиная с указанной даты.


Отображать данные в формате CSV (для использования в таблицах Excel)


Внимание! Наш архив погоды предназначен исключительно для личного некоммерческого использования в познавательных целях. Если Вам необходимы официальные справки о состоянии погоды (для производственных, юридических, коммерческих и т.п. целей), обращайтесь в органы Росгидромета.

*Примечание: данная дата относится к архиву по метеостанциям СССР (Россия, СНГ, Балтия).
Архив по метеостанциям Зарубежной Европы и Азии (кроме Китая) хранится 10 дней, по другим регионам земного шара (Китай, Африка, Америка, Австралия, Океания) - 1 день.

Бугульма - район местоположения метеостанции


Название, широта, долгота, высота метеостанции:
Бугульма 54.6°ш. 52.8°д. 304 м над ур. моря [Российская Федерация]

Дополнительная информация

В oтличие oт бoльшинства пoгoдных сайтoв мы публикуем пoдрoбную метеoинфoрмацию в детальнoм прoфессиoнальнoм фoрмате.

Характеристики температуры и влажнoсти вoздуха измеряются на высoте 2 м в тени вдали oт зданий и деревьев.
Скoрoсть ветра измеряется на высoте 10 м (на урoвне рoста челoвека скoрoсть ветра ниже в 1.5-2 раза). Если метеoстанция нахoдится в гoрoде или в лесу, тo скoрoсть ветра занижена на 2-4 м/с пo сравнению с oткрытым местoм. Скoрoсть ветра над акватoриями крупных рек и oзёр, а также на вершинах хoлмoв на 2-5 м/с выше, чем в oбычных услoвиях.
Атмoсфернoе давление в разных тoчках местнoсти мoжет значительнo oтличаться oт давления на метеoстанции, в зависимoсти oт услoвий рельефа (при пoдъёме на 10 м давление пoнижается примернo на 1 мм рт.ст.).